AMAZONAS 5

Last updated on Mon Dec 08 2025 00:02:50 GMT+0000 (Coordinated Universal Time)

1 42934U 17053A 25341.20473122 -.00000278 00000+0 00000+0 0 9990 2 42934 0.0332 322.6976 0004882 317.2900 168.9544 1.00270577 30123
UTC large
Height (km)
Speed (km/s)
/
Latitude / Longitude
Inclination (degrees)
Orbital Period (minutes)
Azimuth
Elevation
Range (km)
Doppler Factor

Next 0 passes for location: London (51.5072 / 0.1276)

Sorry there are no passes over London.